Time,TemperatureF,DewpointF,PressureIn,WindDirection,WindDirectionDegrees,WindSpeedMPH,WindSpeedGustMPH,Humidity,HourlyPrecipIn,Conditions,Clouds,dailyrainin,SolarRadiationWatts/m^2,SoftwareType,DateUTC
2013-02-17 00:00:00,28.6,22.9,30.18,WNW,282,3.0,5.0,79,0.00,,---,0.00,0.00,VWS V14.01,2013-02-17 08:00:00,
2013-02-17 00:05:00,28.9,22.9,30.17,SW,234,0.0,5.0,78,0.00,,---,0.00,0.00,VWS V14.01,2013-02-17 08:05:00,
2013-02-17 00:10:00,29.7,23.1,30.18,SSW,208,3.0,8.0,76,0.00,,---,0.00,0.00,VWS V14.01,2013-02-17 08:10:00,
2013-02-17 00:15:00,30.5,23.2,30.18,SW,230,0.0,8.0,74,0.00,,---,0.00,0.00,VWS V14.01,2013-02-17 08:15:00,
2013-02-17 00:20:00,30.5,23.2,30.18,SW,230,0.0,8.0,74,0.00,,---,0.00,0.00,VWS V14.01,2013-02-17 08:20:00,
2013-02-17 00:25:00,30.1,22.8,30.19,North,355,1.0,8.0,74,0.00,,---,0.00,0.00,VWS V14.01,2013-02-17 08:25:00,
2013-02-17 00:30:00,29.8,22.9,30.19,North,360,1.0,8.0,75,0.00,,---,0.00,0.00,VWS V14.01,2013-02-17 08:30:00,
2013-02-17 00:35:00,29.5,22.9,30.18,NW,326,1.0,2.0,76,0.00,,---,0.00,0.00,VWS V14.01,2013-02-17 08:35:00,
2013-02-17 00:40:00,29.3,22.7,30.19,NNW,330,1.0,2.0,76,0.00,,---,0.00,0.00,VWS V14.01,2013-02-17 08:40:00,
2013-02-17 00:45:00,29.2,22.9,30.18,WNW,296,4.0,4.0,77,0.00,,---,0.00,0.00,VWS V14.01,2013-02-17 08:45:00,
2013-02-17 00:50:00,29.4,23.1,30.18,NNW,331,0.0,5.0,77,0.00,,---,0.00,0.00,VWS V14.01,2013-02-17 08:50:00,
2013-02-17 00:55:00,29.6,23.3,30.19,WNW,284,3.0,5.0,77,0.00,,---,0.00,0.00,VWS V14.01,2013-02-17 08:55:00,
2013-02-17 01:00:00,29.8,23.8,30.19,West,281,0.0,5.0,78,0.00,,---,0.00,0.00,VWS V14.01,2013-02-17 09:00:00,
2013-02-17 01:05:00,29.9,23.6,30.19,WNW,300,0.0,2.0,77,0.00,,---,0.00,0.00,VWS V14.01,2013-02-17 09:05:00,
2013-02-17 01:10:00,29.8,23.8,30.19,NNE,32,0.0,3.0,78,0.00,,---,0.00,0.00,VWS V14.01,2013-02-17 09:10:00,
2013-02-17 01:15:00,29.6,23.6,30.19,NW,306,0.0,4.0,78,0.00,,---,0.00,0.00,VWS V14.01,2013-02-17 09:15:00,
2013-02-17 01:20:00,29.1,23.1,30.19,NW,306,0.0,4.0,78,0.00,,---,0.00,0.00,VWS V14.01,2013-02-17 09:20:00,
2013-02-17 01:25:00,28.6,22.9,30.19,WSW,249,5.0,5.0,79,0.00,,---,0.00,0.00,VWS V14.01,2013-02-17 09:25:00,
2013-02-17 01:30:00,28.6,22.9,30.19,West,260,2.0,6.0,79,0.00,,---,0.00,0.00,VWS V14.01,2013-02-17 09:30:00,
2013-02-17 01:35:00,28.5,22.8,30.19,West,263,2.0,4.0,79,0.00,,---,0.00,0.00,VWS V14.01,2013-02-17 09:35:00,
2013-02-17 01:40:00,28.2,22.5,30.19,NNW,346,1.0,4.0,79,0.00,,---,0.00,0.00,VWS V14.01,2013-02-17 09:40:00,
2013-02-17 01:45:00,28.0,22.3,30.19,NE,42,2.0,4.0,79,0.00,,---,0.00,0.00,VWS V14.01,2013-02-17 09:45:00,
2013-02-17 01:50:00,27.9,22.8,30.19,NNW,336,2.0,4.0,81,0.00,,---,0.00,0.00,VWS V14.01,2013-02-17 09:50:00,
2013-02-17 01:55:00,27.6,22.5,30.19,NNW,336,2.0,4.0,81,0.00,,---,0.00,0.00,VWS V14.01,2013-02-17 09:55:00,
2013-02-17 02:00:00,27.5,22.5,30.19,North,5,1.0,4.0,81,0.00,,---,0.00,0.00,VWS V14.01,2013-02-17 10:00:00,
2013-02-17 02:05:00,27.4,22.6,30.19,NNW,340,2.0,5.0,82,0.00,,---,0.00,0.00,VWS V14.01,2013-02-17 10:05:00,
2013-02-17 02:10:00,27.3,22.8,30.19,North,360,1.0,5.0,83,0.00,,---,0.00,0.00,VWS V14.01,2013-02-17 10:10:00,
2013-02-17 02:15:00,27.4,22.9,30.19,NW,320,3.0,8.0,83,0.00,,---,0.00,0.00,VWS V14.01,2013-02-17 10:15:00,
2013-02-17 02:20:00,27.6,22.8,30.19,WNW,299,4.0,8.0,82,0.00,,---,0.00,0.00,VWS V14.01,2013-02-17 10:20:00,
2013-02-17 02:25:00,27.7,22.6,30.19,NW,307,2.0,8.0,81,0.00,,---,0.00,0.00,VWS V14.01,2013-02-17 10:25:00,
2013-02-17 02:30:00,27.7,22.4,30.19,NW,317,3.0,8.0,80,0.00,,---,0.00,0.00,VWS V14.01,2013-02-17 10:30:00,
2013-02-17 02:35:00,27.7,22.4,30.19,NW,309,2.0,5.0,80,0.00,,---,0.00,0.00,VWS V14.01,2013-02-17 10:35:00,
2013-02-17 02:40:00,27.8,22.4,30.19,NW,319,1.0,5.0,80,0.00,,---,0.00,0.00,VWS V14.01,2013-02-17 10:40:00,
2013-02-17 02:45:00,27.8,22.1,30.20,NW,306,2.0,5.0,79,0.00,,---,0.00,0.00,VWS V14.01,2013-02-17 10:45:00,
2013-02-17 02:50:00,27.8,22.1,30.20,NW,315,0.0,5.0,79,0.00,,---,0.00,0.00,VWS V14.01,2013-02-17 10:50:00,
2013-02-17 02:55:00,27.7,22.0,30.20,North,355,0.0,5.0,79,0.00,,---,0.00,0.00,VWS V14.01,2013-02-17 10:55:00,
2013-02-17 03:00:00,27.5,22.1,30.19,North,5,2.0,5.0,80,0.00,,---,0.00,0.00,VWS V14.01,2013-02-17 11:00:00,
2013-02-17 03:05:00,27.5,22.1,30.19,North,355,2.0,4.0,80,0.00,,---,0.00,0.00,VWS V14.01,2013-02-17 11:05:00,
2013-02-17 03:10:00,27.4,22.0,30.19,North,5,2.0,4.0,80,0.00,,---,0.00,0.00,VWS V14.01,2013-02-17 11:10:00,
2013-02-17 03:15:00,27.3,22.0,30.19,NNW,339,4.0,4.0,80,0.00,,---,0.00,0.00,VWS V14.01,2013-02-17 11:15:00,
2013-02-17 03:20:00,27.2,22.1,30.19,NW,318,2.0,4.0,81,0.00,,---,0.00,0.00,VWS V14.01,2013-02-17 11:20:00,
2013-02-17 03:25:00,27.2,22.1,30.19,NNW,348,1.0,5.0,81,0.00,,---,0.00,0.00,VWS V14.01,2013-02-17 11:25:00,
2013-02-17 03:30:00,27.2,22.1,30.19,NW,305,3.0,5.0,81,0.00,,---,0.00,0.00,VWS V14.01,2013-02-17 11:30:00,
2013-02-17 03:35:00,27.1,22.1,30.19,NW,306,1.0,3.0,81,0.00,,---,0.00,0.00,VWS V14.01,2013-02-17 11:35:00,
2013-02-17 03:40:00,27.1,22.1,30.19,North,360,4.0,4.0,81,0.00,,---,0.00,0.00,VWS V14.01,2013-02-17 11:40:00,
2013-02-17 03:45:00,27.1,22.1,30.19,NE,42,2.0,4.0,81,0.00,,---,0.00,0.00,VWS V14.01,2013-02-17 11:45:00,
2013-02-17 03:50:00,27.0,22.2,30.18,North,350,2.0,4.0,82,0.00,,---,0.00,0.00,VWS V14.01,2013-02-17 11:50:00,
2013-02-17 03:55:00,27.0,22.0,30.18,North,5,2.0,5.0,81,0.00,,---,0.00,0.00,VWS V14.01,2013-02-17 11:55:00,
2013-02-17 04:00:00,26.9,21.9,30.18,NW,307,3.0,5.0,81,0.00,,---,0.00,0.00,VWS V14.01,2013-02-17 12:00:00,
2013-02-17 04:05:00,26.7,21.7,30.19,West,269,4.0,5.0,81,0.00,,---,0.00,0.00,VWS V14.01,2013-02-17 12:05:00,
2013-02-17 04:10:00,26.7,21.7,30.19,NW,326,0.0,5.0,81,0.00,,---,0.00,0.00,VWS V14.01,2013-02-17 12:10:00,
2013-02-17 04:15:00,26.6,21.3,30.19,NW,309,0.0,5.0,80,0.00,,---,0.00,0.00,VWS V14.01,2013-02-17 12:15:00,
2013-02-17 04:20:00,26.5,21.2,30.19,North,355,2.0,5.0,80,0.00,,---,0.00,0.00,VWS V14.01,2013-02-17 12:20:00,
2013-02-17 04:25:00,26.4,21.1,30.19,WNW,295,1.0,5.0,80,0.00,,---,0.00,0.00,VWS V14.01,2013-02-17 12:25:00,
2013-02-17 04:30:00,26.2,20.9,30.19,NNW,328,0.0,5.0,80,0.00,,---,0.00,0.00,VWS V14.01,2013-02-17 12:30:00,
2013-02-17 04:35:00,26.0,20.7,30.20,NW,311,2.0,3.0,80,0.00,,---,0.00,0.00,VWS V14.01,2013-02-17 12:35:00,
2013-02-17 04:40:00,26.1,20.8,30.19,NNE,15,2.0,4.0,80,0.00,,---,0.00,0.00,VWS V14.01,2013-02-17 12:40:00,
2013-02-17 04:45:00,26.1,20.8,30.19,NNE,17,4.0,4.0,80,0.00,,---,0.00,0.00,VWS V14.01,2013-02-17 12:45:00,
2013-02-17 04:50:00,26.2,20.9,30.19,NW,305,3.0,6.0,80,0.00,,---,0.00,0.00,VWS V14.01,2013-02-17 12:50:00,
2013-02-17 04:55:00,26.3,21.3,30.19,NW,311,3.0,6.0,81,0.00,,---,0.00,0.00,VWS V14.01,2013-02-17 12:55:00,
2013-02-17 05:00:00,26.5,21.5,30.19,North,5,1.0,6.0,81,0.00,,---,0.00,0.00,VWS V14.01,2013-02-17 13:00:00,
2013-02-17 05:05:00,26.5,21.5,30.18,NW,315,0.0,4.0,81,0.00,,---,0.00,0.00,VWS V14.01,2013-02-17 13:05:00,
2013-02-17 05:10:00,26.5,21.2,30.19,NW,318,1.0,4.0,80,0.00,,---,0.00,0.00,VWS V14.01,2013-02-17 13:10:00,
2013-02-17 05:15:00,26.5,21.2,30.19,North,360,1.0,4.0,80,0.00,,---,0.00,0.00,VWS V14.01,2013-02-17 13:15:00,
2013-02-17 05:20:00,26.4,21.1,30.18,NNE,13,5.0,5.0,80,0.00,,---,0.00,0.00,VWS V14.01,2013-02-17 13:20:00,
2013-02-17 05:25:00,26.4,21.1,30.18,North,355,3.0,7.0,80,0.00,,---,0.00,0.00,VWS V14.01,2013-02-17 13:25:00,
2013-02-17 05:30:00,26.5,21.5,30.19,North,5,2.0,8.0,81,0.00,,---,0.00,0.00,VWS V14.01,2013-02-17 13:30:00,
2013-02-17 05:35:00,26.5,21.5,30.18,NNE,13,7.0,7.0,81,0.00,,---,0.00,0.00,VWS V14.01,2013-02-17 13:35:00,
2013-02-17 05:40:00,26.5,21.5,30.19,WNW,291,4.0,8.0,81,0.00,,---,0.00,0.00,VWS V14.01,2013-02-17 13:40:00,
2013-02-17 05:45:00,26.5,21.8,30.19,NNE,14,3.0,8.0,82,0.00,,---,0.00,0.00,VWS V14.01,2013-02-17 13:45:00,
2013-02-17 05:50:00,26.5,21.5,30.18,NNE,20,3.0,8.0,81,0.00,,---,0.00,0.00,VWS V14.01,2013-02-17 13:50:00,
2013-02-17 05:55:00,26.5,21.8,30.18,NNW,344,4.0,8.0,82,0.00,,---,0.00,0.00,VWS V14.01,2013-02-17 13:55:00,
2013-02-17 06:00:00,26.5,21.5,30.18,NNE,16,5.0,8.0,81,0.00,,---,0.00,0.00,VWS V14.01,2013-02-17 14:00:00,
2013-02-17 06:05:00,26.4,21.4,30.19,NNE,15,4.0,8.0,81,0.00,,---,0.00,0.00,VWS V14.01,2013-02-17 14:05:00,
2013-02-17 06:10:00,26.3,21.3,30.19,NNE,20,2.0,9.0,81,0.00,,---,0.00,0.00,VWS V14.01,2013-02-17 14:10:00,
2013-02-17 06:15:00,26.2,21.2,30.19,North,349,6.0,9.0,81,0.00,,---,0.00,0.00,VWS V14.01,2013-02-17 14:15:00,
2013-02-17 06:20:00,26.0,21.0,30.19,North,10,5.0,9.0,81,0.00,,---,0.00,0.00,VWS V14.01,2013-02-17 14:20:00,
2013-02-17 06:25:00,25.8,20.5,30.19,NNE,12,8.0,9.0,80,0.00,,---,0.00,0.00,VWS V14.01,2013-02-17 14:25:00,
2013-02-17 06:30:00,25.7,20.4,30.19,North,9,4.0,9.0,80,0.00,,---,0.00,0.00,VWS V14.01,2013-02-17 14:30:00,
2013-02-17 06:35:00,25.7,20.7,30.20,North,360,4.0,8.0,81,0.00,,---,0.00,0.00,VWS V14.01,2013-02-17 14:35:00,
2013-02-17 06:40:00,25.6,20.6,30.20,NNE,20,6.0,8.0,81,0.00,,---,0.00,0.00,VWS V14.01,2013-02-17 14:40:00,
2013-02-17 06:45:00,25.5,20.8,30.20,NNE,30,2.0,8.0,82,0.00,,---,0.00,0.00,VWS V14.01,2013-02-17 14:45:00,
2013-02-17 06:50:00,25.5,20.8,30.20,NNE,26,2.0,8.0,82,0.00,,---,0.00,0.00,VWS V14.01,2013-02-17 14:50:00,
2013-02-17 06:55:00,25.5,20.8,30.20,NNW,342,4.0,8.0,82,0.00,,---,0.00,0.00,VWS V14.01,2013-02-17 14:55:00,
2013-02-17 07:00:00,25.4,20.7,30.20,North,5,2.0,8.0,82,0.00,,---,0.00,5.00,VWS V14.01,2013-02-17 15:00:00,
2013-02-17 07:05:00,25.5,20.8,30.20,North,5,5.0,8.0,82,0.00,,---,0.00,7.00,VWS V14.01,2013-02-17 15:05:00,
2013-02-17 07:10:00,25.5,20.8,30.20,NW,315,2.0,8.0,82,0.00,,---,0.00,9.00,VWS V14.01,2013-02-17 15:10:00,
2013-02-17 07:15:00,25.5,20.8,30.20,NNE,33,6.0,8.0,82,0.00,,---,0.00,11.00,VWS V14.01,2013-02-17 15:15:00,
2013-02-17 07:20:00,25.6,20.9,30.20,NNW,347,3.0,8.0,82,0.00,,---,0.00,12.00,VWS V14.01,2013-02-17 15:20:00,
2013-02-17 07:25:00,25.6,20.9,30.21,NE,46,3.0,8.0,82,0.00,,---,0.00,14.00,VWS V14.01,2013-02-17 15:25:00,
2013-02-17 07:30:00,25.6,20.6,30.21,NNE,13,4.0,8.0,81,0.00,,---,0.00,16.00,VWS V14.01,2013-02-17 15:30:00,
2013-02-17 07:35:00,25.6,20.6,30.21,North,350,4.0,7.0,81,0.00,,---,0.00,18.00,VWS V14.01,2013-02-17 15:35:00,
2013-02-17 07:40:00,25.6,20.6,30.21,North,355,6.0,7.0,81,0.00,,---,0.00,19.00,VWS V14.01,2013-02-17 15:40:00,
2013-02-17 07:45:00,25.6,20.6,30.22,North,10,5.0,7.0,81,0.00,,---,0.00,19.00,VWS V14.01,2013-02-17 15:45:00,
2013-02-17 07:50:00,25.6,20.6,30.22,NNE,17,6.0,7.0,81,0.00,,---,0.00,21.00,VWS V14.01,2013-02-17 15:50:00,
2013-02-17 07:55:00,25.6,20.3,30.22,NNE,19,5.0,7.0,80,0.00,,---,0.00,23.00,VWS V14.01,2013-02-17 15:55:00,
2013-02-17 08:00:00,25.7,20.7,30.22,NNE,24,4.0,7.0,81,0.00,,---,0.00,25.00,VWS V14.01,2013-02-17 16:00:00,
2013-02-17 08:05:00,25.7,20.7,30.21,NNE,24,3.0,7.0,81,0.00,,---,0.00,25.00,VWS V14.01,2013-02-17 16:05:00,
2013-02-17 08:10:00,25.8,20.8,30.21,NNE,17,4.0,7.0,81,0.00,,---,0.00,26.00,VWS V14.01,2013-02-17 16:10:00,
2013-02-17 08:15:00,25.9,20.9,30.21,NE,36,3.0,9.0,81,0.00,,---,0.00,28.00,VWS V14.01,2013-02-17 16:15:00,
2013-02-17 08:20:00,26.0,21.0,30.22,NNE,22,5.0,9.0,81,0.00,,---,0.00,28.00,VWS V14.01,2013-02-17 16:20:00,
2013-02-17 08:25:00,26.1,21.1,30.22,NE,34,3.0,9.0,81,0.00,,---,0.00,30.00,VWS V14.01,2013-02-17 16:25:00,
2013-02-17 08:30:00,26.2,21.2,30.22,North,9,5.0,9.0,81,0.00,,---,0.00,35.00,VWS V14.01,2013-02-17 16:30:00,
2013-02-17 08:35:00,26.5,21.5,30.22,North,360,3.0,6.0,81,0.00,,---,0.00,51.00,VWS V14.01,2013-02-17 16:35:00,
2013-02-17 08:40:00,26.8,21.8,30.22,NNE,18,6.0,7.0,81,0.00,,---,0.00,153.00,VWS V14.01,2013-02-17 16:40:00,
2013-02-17 08:45:00,27.2,22.1,30.22,NNE,29,3.0,8.0,81,0.00,,---,0.00,33.00,VWS V14.01,2013-02-17 16:45:00,
2013-02-17 08:50:00,27.5,22.5,30.22,NNE,31,3.0,8.0,81,0.00,,---,0.00,37.00,VWS V14.01,2013-02-17 16:50:00,
2013-02-17 08:55:00,28.0,22.6,30.22,NE,44,5.0,8.0,80,0.00,,---,0.00,35.00,VWS V14.01,2013-02-17 16:55:00,
2013-02-17 09:00:00,28.4,22.7,30.22,North,10,6.0,8.0,79,0.00,,---,0.00,69.00,VWS V14.01,2013-02-17 17:00:00,
2013-02-17 09:05:00,28.8,22.8,30.22,NNW,342,5.0,8.0,78,0.00,,---,0.00,35.00,VWS V14.01,2013-02-17 17:05:00,
2013-02-17 09:10:00,29.2,22.9,30.22,NE,47,2.0,8.0,77,0.00,,---,0.00,51.00,VWS V14.01,2013-02-17 17:10:00,
2013-02-17 09:15:00,29.6,23.0,30.22,NNE,30,5.0,8.0,76,0.00,,---,0.00,37.00,VWS V14.01,2013-02-17 17:15:00,
2013-02-17 09:20:00,30.1,22.8,30.22,North,5,5.0,8.0,74,0.00,,---,0.00,35.00,VWS V14.01,2013-02-17 17:20:00,
2013-02-17 09:25:00,30.6,23.0,30.22,NNE,26,7.0,11.0,73,0.00,,---,0.00,39.00,VWS V14.01,2013-02-17 17:25:00,
2013-02-17 09:30:00,31.0,23.0,30.22,NE,51,6.0,11.0,72,0.00,,---,0.00,39.00,VWS V14.01,2013-02-17 17:30:00,
2013-02-17 09:35:00,31.2,22.9,30.22,NNW,335,5.0,10.0,71,0.00,,---,0.00,40.00,VWS V14.01,2013-02-17 17:35:00,
2013-02-17 09:40:00,31.5,22.5,30.22,North,11,5.0,10.0,69,0.00,,---,0.00,40.00,VWS V14.01,2013-02-17 17:40:00,
2013-02-17 09:45:00,31.7,22.4,30.22,ENE,61,7.0,10.0,68,0.00,,---,0.00,39.00,VWS V14.01,2013-02-17 17:45:00,
2013-02-17 09:50:00,32.0,22.6,30.22,NNE,16,2.0,10.0,68,0.00,,---,0.00,132.00,VWS V14.01,2013-02-17 17:50:00,
2013-02-17 09:55:00,32.3,22.2,30.22,NNE,28,4.0,10.0,66,0.00,,---,0.00,46.00,VWS V14.01,2013-02-17 17:55:00,
2013-02-17 10:00:00,32.6,22.5,30.23,North,355,3.0,10.0,66,0.00,,---,0.00,40.00,VWS V14.01,2013-02-17 18:00:00,
2013-02-17 10:05:00,33.0,22.9,30.23,North,355,4.0,7.0,66,0.00,,---,0.00,42.00,VWS V14.01,2013-02-17 18:05:00,
2013-02-17 10:10:00,33.4,22.2,30.22,NNW,342,5.0,7.0,63,0.00,,---,0.00,158.00,VWS V14.01,2013-02-17 18:10:00,
2013-02-17 10:15:00,33.7,22.1,30.22,NE,36,4.0,7.0,62,0.00,,---,0.00,56.00,VWS V14.01,2013-02-17 18:15:00,
2013-02-17 10:20:00,34.0,22.7,30.22,East,79,1.0,7.0,63,0.00,,---,0.00,134.00,VWS V14.01,2013-02-17 18:20:00,
2013-02-17 10:25:00,34.4,22.4,30.22,NNW,348,0.0,7.0,61,0.00,,---,0.00,490.00,VWS V14.01,2013-02-17 18:25:00,
2013-02-17 10:30:00,35.0,22.5,30.22,NE,42,2.0,7.0,60,0.00,,---,0.00,501.00,VWS V14.01,2013-02-17 18:30:00,
2013-02-17 10:35:00,35.3,21.6,30.22,ENE,59,4.0,5.0,57,0.00,,---,0.00,512.00,VWS V14.01,2013-02-17 18:35:00,
2013-02-17 10:40:00,35.7,21.1,30.22,NNE,30,5.0,8.0,55,0.00,,---,0.00,520.00,VWS V14.01,2013-02-17 18:40:00,
2013-02-17 10:45:00,36.1,21.1,30.22,NE,53,3.0,8.0,54,0.00,,---,0.00,531.00,VWS V14.01,2013-02-17 18:45:00,
2013-02-17 10:50:00,36.5,20.6,30.22,ENE,66,0.0,8.0,52,0.00,,---,0.00,538.00,VWS V14.01,2013-02-17 18:50:00,
2013-02-17 10:55:00,37.1,21.6,30.22,North,9,0.0,8.0,53,0.00,,---,0.00,545.00,VWS V14.01,2013-02-17 18:55:00,
2013-02-17 11:00:00,37.6,21.6,30.22,ENE,70,0.0,8.0,52,0.00,,---,0.00,552.00,VWS V14.01,2013-02-17 19:00:00,
2013-02-17 11:05:00,37.9,20.5,30.22,NW,323,0.0,3.0,49,0.00,,---,0.00,559.00,VWS V14.01,2013-02-17 19:05:00,
2013-02-17 11:10:00,38.4,20.4,30.21,NE,52,4.0,5.0,48,0.00,,---,0.00,568.00,VWS V14.01,2013-02-17 19:10:00,
2013-02-17 11:15:00,38.8,19.3,30.21,NE,36,2.0,7.0,45,0.00,,---,0.00,575.00,VWS V14.01,2013-02-17 19:15:00,
2013-02-17 11:20:00,39.1,18.0,30.21,East,98,0.0,7.0,42,0.00,,---,0.00,577.00,VWS V14.01,2013-02-17 19:20:00,
2013-02-17 11:25:00,39.4,17.1,30.21,NE,41,3.0,8.0,40,0.00,,---,0.00,584.00,VWS V14.01,2013-02-17 19:25:00,
2013-02-17 11:30:00,39.5,16.6,30.21,ENE,74,4.0,8.0,39,0.00,,---,0.00,587.00,VWS V14.01,2013-02-17 19:30:00,
2013-02-17 11:35:00,39.7,16.2,30.20,NNE,13,4.0,5.0,38,0.00,,---,0.00,589.00,VWS V14.01,2013-02-17 19:35:00,
2013-02-17 11:40:00,40.0,19.3,30.20,NNE,30,5.0,6.0,43,0.00,,---,0.00,592.00,VWS V14.01,2013-02-17 19:40:00,
2013-02-17 11:45:00,40.7,18.3,30.20,NE,45,2.0,9.0,40,0.00,,---,0.00,596.00,VWS V14.01,2013-02-17 19:45:00,
2013-02-17 11:50:00,40.9,18.5,30.20,NNW,333,2.0,9.0,40,0.00,,---,0.00,601.00,VWS V14.01,2013-02-17 19:50:00,
2013-02-17 11:55:00,41.4,17.7,30.20,WNW,298,2.0,9.0,38,0.00,,---,0.00,603.00,VWS V14.01,2013-02-17 19:55:00,
2013-02-17 12:00:00,41.8,16.2,30.19,North,9,3.0,9.0,35,0.00,,---,0.00,543.00,VWS V14.01,2013-02-17 20:00:00,
2013-02-17 12:05:00,41.7,17.4,30.20,ENE,69,4.0,7.0,37,0.00,,---,0.00,306.00,VWS V14.01,2013-02-17 20:05:00,
2013-02-17 12:09:00,42.1,17.7,30.19,NNE,19,1.0,7.0,37,0.00,,---,0.00,120.00,VWS V14.01,2013-02-17 20:09:00,
2013-02-17 12:14:00,42.4,17.4,30.19,WNW,300,4.0,7.0,36,0.00,,---,0.00,209.00,VWS V14.01,2013-02-17 20:14:00,
2013-02-17 12:19:00,42.5,16.1,30.19,SW,223,0.0,7.0,34,0.00,,---,0.00,390.00,VWS V14.01,2013-02-17 20:19:00,
2013-02-17 12:24:00,42.6,16.9,30.19,East,80,3.0,7.0,35,0.00,,---,0.00,585.00,VWS V14.01,2013-02-17 20:24:00,
2013-02-17 12:29:00,43.0,15.2,30.18,East,90,0.0,7.0,32,0.00,,---,0.00,584.00,VWS V14.01,2013-02-17 20:29:00,
2013-02-17 12:34:00,43.3,15.4,30.18,ESE,110,2.0,3.0,32,0.00,,---,0.00,608.00,VWS V14.01,2013-02-17 20:34:00,
2013-02-17 12:39:00,43.7,15.8,30.18,NE,55,4.0,5.0,32,0.00,,---,0.00,606.00,VWS V14.01,2013-02-17 20:39:00,
2013-02-17 12:44:00,44.0,13.8,30.18,North,5,3.0,6.0,29,0.00,,---,0.00,606.00,VWS V14.01,2013-02-17 20:44:00,
2013-02-17 12:49:00,43.9,14.5,30.18,NE,46,3.0,6.0,30,0.00,,---,0.00,605.00,VWS V14.01,2013-02-17 20:49:00,
2013-02-17 12:54:00,44.1,13.9,30.17,ESE,102,0.0,6.0,29,0.00,,---,0.00,603.00,VWS V14.01,2013-02-17 20:54:00,
2013-02-17 12:59:00,44.2,14.8,30.17,NNW,342,3.0,6.0,30,0.00,,---,0.00,598.00,VWS V14.01,2013-02-17 20:59:00,
2013-02-17 13:04:00,44.4,14.9,30.17,ESE,123,1.0,6.0,30,0.00,,---,0.00,596.00,VWS V14.01,2013-02-17 21:04:00,
2013-02-17 13:09:00,44.4,14.1,30.17,West,275,2.0,6.0,29,0.00,,---,0.00,589.00,VWS V14.01,2013-02-17 21:09:00,
2013-02-17 13:14:00,44.5,14.2,30.17,ENE,59,1.0,6.0,29,0.00,,---,0.00,585.00,VWS V14.01,2013-02-17 21:14:00,
2013-02-17 13:19:00,44.9,15.4,30.17,East,84,0.0,6.0,30,0.00,,---,0.00,585.00,VWS V14.01,2013-02-17 21:19:00,
2013-02-17 13:24:00,45.4,14.2,30.17,ESE,123,0.0,6.0,28,0.00,,---,0.00,582.00,VWS V14.01,2013-02-17 21:24:00,
2013-02-17 13:29:00,45.8,12.9,30.17,WSW,251,4.0,6.0,26,0.00,,---,0.00,573.00,VWS V14.01,2013-02-17 21:29:00,
2013-02-17 13:34:00,45.2,11.5,30.16,West,271,2.0,6.0,25,0.00,,---,0.00,570.00,VWS V14.01,2013-02-17 21:34:00,
2013-02-17 13:39:00,44.8,12.0,30.16,NNE,16,1.0,6.0,26,0.00,,---,0.00,564.00,VWS V14.01,2013-02-17 21:39:00,
2013-02-17 13:44:00,44.9,13.8,30.16,WSW,237,1.0,6.0,28,0.00,,---,0.00,559.00,VWS V14.01,2013-02-17 21:44:00,
2013-02-17 13:49:00,45.1,14.8,30.16,WSW,238,0.0,6.0,29,0.00,,---,0.00,554.00,VWS V14.01,2013-02-17 21:49:00,
2013-02-17 13:54:00,45.1,15.5,30.16,South,182,0.0,6.0,30,0.00,,---,0.00,547.00,VWS V14.01,2013-02-17 21:54:00,
2013-02-17 13:59:00,45.1,14.0,30.16,SW,228,3.0,6.0,28,0.00,,---,0.00,534.00,VWS V14.01,2013-02-17 21:59:00,
2013-02-17 14:04:00,44.0,13.8,30.16,WSW,250,2.0,5.0,29,0.00,,---,0.00,526.00,VWS V14.01,2013-02-17 22:04:00,
2013-02-17 14:09:00,43.8,18.0,30.16,South,181,2.0,5.0,35,0.00,,---,0.00,508.00,VWS V14.01,2013-02-17 22:09:00,
2013-02-17 14:14:00,44.1,18.2,30.15,SSW,201,4.0,8.0,35,0.00,,---,0.00,490.00,VWS V14.01,2013-02-17 22:14:00,
2013-02-17 14:19:00,44.1,18.9,30.15,SSW,201,0.0,8.0,36,0.00,,---,0.00,490.00,VWS V14.01,2013-02-17 22:19:00,
2013-02-17 14:24:00,43.7,18.5,30.15,SSW,213,1.0,8.0,36,0.00,,---,0.00,490.00,VWS V14.01,2013-02-17 22:24:00,
2013-02-17 14:29:00,43.4,18.2,30.15,SW,228,3.0,8.0,36,0.00,,---,0.00,485.00,VWS V14.01,2013-02-17 22:29:00,
2013-02-17 14:34:00,43.6,19.1,30.15,SW,227,0.0,4.0,37,0.00,,---,0.00,469.00,VWS V14.01,2013-02-17 22:34:00,
2013-02-17 14:39:00,43.5,19.0,30.15,South,182,1.0,5.0,37,0.00,,---,0.00,459.00,VWS V14.01,2013-02-17 22:39:00,
2013-02-17 14:44:00,43.6,19.1,30.15,South,178,4.0,5.0,37,0.00,,---,0.00,448.00,VWS V14.01,2013-02-17 22:44:00,
2013-02-17 14:49:00,43.9,19.3,30.15,WSW,242,1.0,6.0,37,0.00,,---,0.00,432.00,VWS V14.01,2013-02-17 22:49:00,
2013-02-17 14:54:00,43.9,20.0,30.15,SSE,161,3.0,6.0,38,0.00,,---,0.00,424.00,VWS V14.01,2013-02-17 22:54:00,
2013-02-17 14:59:00,44.0,20.0,30.15,SSE,163,4.0,6.0,38,0.00,,---,0.00,410.00,VWS V14.01,2013-02-17 22:59:00,
2013-02-17 15:05:00,44.1,18.9,30.15,South,185,4.0,6.0,36,0.00,,---,0.00,401.00,VWS V14.01,2013-02-17 23:05:00,
2013-02-17 15:10:00,44.0,18.8,30.15,South,174,1.0,6.0,36,0.00,,---,0.00,392.00,VWS V14.01,2013-02-17 23:10:00,
2013-02-17 15:15:00,44.0,19.4,30.15,SSW,197,4.0,6.0,37,0.00,,---,0.00,381.00,VWS V14.01,2013-02-17 23:15:00,
2013-02-17 15:20:00,43.7,19.1,30.14,WSW,238,4.0,6.0,37,0.00,,---,0.00,369.00,VWS V14.01,2013-02-17 23:20:00,
2013-02-17 15:24:00,43.7,18.5,30.14,SW,227,0.0,6.0,36,0.00,,---,0.00,355.00,VWS V14.01,2013-02-17 23:24:00,
2013-02-17 15:29:00,43.8,19.2,30.15,South,183,1.0,6.0,37,0.00,,---,0.00,341.00,VWS V14.01,2013-02-17 23:29:00,
2013-02-17 15:34:00,44.1,19.5,30.14,South,171,3.0,4.0,37,0.00,,---,0.00,334.00,VWS V14.01,2013-02-17 23:34:00,
2013-02-17 15:39:00,44.3,19.0,30.15,South,169,3.0,4.0,36,0.00,,---,0.00,327.00,VWS V14.01,2013-02-17 23:39:00,
2013-02-17 15:44:00,44.2,18.3,30.14,South,183,2.0,5.0,35,0.00,,---,0.00,306.00,VWS V14.01,2013-02-17 23:44:00,
2013-02-17 15:49:00,44.1,18.2,30.14,WSW,252,2.0,5.0,35,0.00,,---,0.00,290.00,VWS V14.01,2013-02-17 23:49:00,
2013-02-17 15:54:00,44.1,18.2,30.14,SSW,192,0.0,5.0,35,0.00,,---,0.00,192.00,VWS V14.01,2013-02-17 23:54:00,
2013-02-17 15:59:00,44.0,18.1,30.14,SSW,211,1.0,5.0,35,0.00,,---,0.00,165.00,VWS V14.01,2013-02-17 23:59:00,
2013-02-17 16:04:00,43.8,18.0,30.14,South,173,0.0,2.0,35,0.00,,---,0.00,156.00,VWS V14.01,2013-02-18 00:04:00,
2013-02-17 16:09:00,43.6,17.8,30.14,WSW,237,0.0,3.0,35,0.00,,---,0.00,186.00,VWS V14.01,2013-02-18 00:09:00,
2013-02-17 16:14:00,43.5,18.3,30.14,SW,223,1.0,3.0,36,0.00,,---,0.00,174.00,VWS V14.01,2013-02-18 00:14:00,
2013-02-17 16:19:00,43.5,19.0,30.15,South,169,3.0,5.0,37,0.00,,---,0.00,167.00,VWS V14.01,2013-02-18 00:19:00,
2013-02-17 16:24:00,43.3,18.8,30.15,SSW,213,1.0,5.0,37,0.00,,---,0.00,153.00,VWS V14.01,2013-02-18 00:24:00,
2013-02-17 16:29:00,42.9,18.4,30.15,SW,218,1.0,5.0,37,0.00,,---,0.00,128.00,VWS V14.01,2013-02-18 00:29:00,
2013-02-17 16:34:00,42.6,18.8,30.15,SW,214,1.0,6.0,38,0.00,,---,0.00,91.00,VWS V14.01,2013-02-18 00:34:00,
2013-02-17 16:39:00,42.2,18.4,30.15,WSW,244,0.0,6.0,38,0.00,,---,0.00,77.00,VWS V14.01,2013-02-18 00:39:00,
2013-02-17 16:44:00,41.8,18.7,30.15,SW,232,1.0,6.0,39,0.00,,---,0.00,69.00,VWS V14.01,2013-02-18 00:44:00,
2013-02-17 16:49:00,41.5,19.0,30.15,SW,233,0.0,6.0,40,0.00,,---,0.00,60.00,VWS V14.01,2013-02-18 00:49:00,
2013-02-17 16:54:00,41.3,19.4,30.15,WSW,238,0.0,6.0,41,0.00,,---,0.00,49.00,VWS V14.01,2013-02-18 00:54:00,
2013-02-17 16:59:00,41.1,19.2,30.14,WSW,239,1.0,6.0,41,0.00,,---,0.00,40.00,VWS V14.01,2013-02-18 00:59:00,
2013-02-17 17:04:00,40.8,19.5,30.15,WSW,238,2.0,2.0,42,0.00,,---,0.00,35.00,VWS V14.01,2013-02-18 01:04:00,
2013-02-17 17:09:00,40.6,19.9,30.15,WSW,238,2.0,2.0,43,0.00,,---,0.00,33.00,VWS V14.01,2013-02-18 01:09:00,
2013-02-17 17:14:00,40.2,19.5,30.15,WSW,238,0.0,2.0,43,0.00,,---,0.00,30.00,VWS V14.01,2013-02-18 01:14:00,
2013-02-17 17:19:00,40.0,20.4,30.15,SSW,201,0.0,2.0,45,0.00,,---,0.00,26.00,VWS V14.01,2013-02-18 01:19:00,
2013-02-17 17:24:00,39.8,21.7,30.15,SSW,201,0.0,4.0,48,0.00,,---,0.00,21.00,VWS V14.01,2013-02-18 01:24:00,
2013-02-17 17:29:00,39.3,22.7,30.14,SSE,163,2.0,4.0,51,0.00,,---,0.00,14.00,VWS V14.01,2013-02-18 01:29:00,
2013-02-17 17:34:00,38.8,23.1,30.14,SSW,206,0.0,4.0,53,0.00,,---,0.00,7.00,VWS V14.01,2013-02-18 01:34:00,
2013-02-17 17:39:00,38.4,23.7,30.14,SW,221,1.0,4.0,55,0.00,,---,0.00,0.00,VWS V14.01,2013-02-18 01:39:00,
2013-02-17 17:44:00,37.9,23.6,30.14,WSW,238,0.0,4.0,56,0.00,,---,0.00,0.00,VWS V14.01,2013-02-18 01:44:00,
2013-02-17 17:49:00,37.5,23.7,30.15,SSW,204,0.0,4.0,57,0.00,,---,0.00,0.00,VWS V14.01,2013-02-18 01:49:00,
2013-02-17 17:54:00,37.1,23.7,30.15,South,189,0.0,4.0,58,0.00,,---,0.00,0.00,VWS V14.01,2013-02-18 01:54:00,
2013-02-17 17:59:00,36.9,23.9,30.15,South,178,0.0,4.0,59,0.00,,---,0.00,0.00,VWS V14.01,2013-02-18 01:59:00,
2013-02-17 18:04:00,36.6,23.6,30.15,South,178,0.0,0.0,59,0.00,,---,0.00,0.00,VWS V14.01,2013-02-18 02:04:00,
2013-02-17 18:09:00,36.0,23.9,30.15,SSE,155,0.0,3.0,61,0.00,,---,0.00,0.00,VWS V14.01,2013-02-18 02:09:00,
2013-02-17 18:14:00,35.6,23.9,30.15,SSE,157,0.0,3.0,62,0.00,,---,0.00,0.00,VWS V14.01,2013-02-18 02:14:00,
2013-02-17 18:19:00,35.3,24.4,30.15,SSW,194,0.0,3.0,64,0.00,,---,0.00,0.00,VWS V14.01,2013-02-18 02:19:00,
2013-02-17 18:24:00,35.0,24.1,30.15,SSW,194,0.0,3.0,64,0.00,,---,0.00,0.00,VWS V14.01,2013-02-18 02:24:00,
2013-02-17 18:29:00,34.6,24.1,30.15,SW,219,2.0,3.0,65,0.00,,---,0.00,0.00,VWS V14.01,2013-02-18 02:29:00,
2013-02-17 18:34:00,34.2,24.0,30.15,SW,220,0.0,2.0,66,0.00,,---,0.00,0.00,VWS V14.01,2013-02-18 02:34:00,
2013-02-17 18:39:00,34.2,24.4,30.15,SSW,200,1.0,2.0,67,0.00,,---,0.00,0.00,VWS V14.01,2013-02-18 02:39:00,
2013-02-17 18:44:00,34.2,24.4,30.15,SW,223,1.0,5.0,67,0.00,,---,0.00,0.00,VWS V14.01,2013-02-18 02:44:00,
2013-02-17 18:49:00,34.2,24.8,30.15,SW,215,0.0,5.0,68,0.00,,---,0.00,0.00,VWS V14.01,2013-02-18 02:49:00,
2013-02-17 18:54:00,34.2,24.8,30.15,SSW,206,1.0,5.0,68,0.00,,---,0.00,0.00,VWS V14.01,2013-02-18 02:54:00,
2013-02-17 18:59:00,34.1,24.7,30.15,SSW,198,2.0,5.0,68,0.00,,---,0.00,0.00,VWS V14.01,2013-02-18 02:59:00,
2013-02-17 19:04:00,33.9,24.8,30.15,SSW,206,2.0,2.0,69,0.00,,---,0.00,0.00,VWS V14.01,2013-02-18 03:04:00,
2013-02-17 19:09:00,33.7,24.6,30.15,WSW,240,2.0,2.0,69,0.00,,---,0.00,0.00,VWS V14.01,2013-02-18 03:09:00,
2013-02-17 19:14:00,33.5,24.4,30.15,SSW,201,1.0,3.0,69,0.00,,---,0.00,0.00,VWS V14.01,2013-02-18 03:14:00,
2013-02-17 19:19:00,33.3,24.6,30.15,SSW,208,0.0,3.0,70,0.00,,---,0.00,0.00,VWS V14.01,2013-02-18 03:19:00,
2013-02-17 19:24:00,33.2,24.5,30.15,South,170,1.0,4.0,70,0.00,,---,0.00,0.00,VWS V14.01,2013-02-18 03:24:00,
2013-02-17 19:29:00,32.9,24.2,30.15,SSW,200,0.0,4.0,70,0.00,,---,0.00,0.00,VWS V14.01,2013-02-18 03:29:00,
2013-02-17 19:34:00,32.6,24.2,30.15,SSW,200,0.0,0.0,71,0.00,,---,0.00,0.00,VWS V14.01,2013-02-18 03:34:00,
2013-02-17 19:39:00,32.3,24.0,30.15,SSW,196,0.0,1.0,71,0.00,,---,0.00,0.00,VWS V14.01,2013-02-18 03:39:00,
2013-02-17 19:44:00,32.0,24.0,30.15,South,188,1.0,4.0,72,0.00,,---,0.00,0.00,VWS V14.01,2013-02-18 03:44:00,
2013-02-17 19:49:00,31.8,23.8,30.15,South,191,0.0,4.0,72,0.00,,---,0.00,0.00,VWS V14.01,2013-02-18 03:49:00,
2013-02-17 19:54:00,31.6,24.0,30.15,SSW,205,0.0,4.0,73,0.00,,---,0.00,0.00,VWS V14.01,2013-02-18 03:54:00,
2013-02-17 19:59:00,31.5,23.9,30.15,SSW,207,0.0,4.0,73,0.00,,---,0.00,0.00,VWS V14.01,2013-02-18 03:59:00,
2013-02-17 20:04:00,31.4,23.8,30.15,SSW,207,0.0,0.0,73,0.00,,---,0.00,0.00,VWS V14.01,2013-02-18 04:04:00,
2013-02-17 20:09:00,31.2,23.9,30.15,SSW,207,0.0,0.0,74,0.00,,---,0.00,0.00,VWS V14.01,2013-02-18 04:09:00,
2013-02-17 20:14:00,31.0,24.0,30.15,SSW,207,0.0,0.0,75,0.00,,---,0.00,0.00,VWS V14.01,2013-02-18 04:14:00,
2013-02-17 20:19:00,30.8,23.8,30.15,SSE,167,2.0,2.0,75,0.00,,---,0.00,0.00,VWS V14.01,2013-02-18 04:19:00,
2013-02-17 20:24:00,30.6,23.6,30.15,SSW,203,0.0,2.0,75,0.00,,---,0.00,0.00,VWS V14.01,2013-02-18 04:24:00,
2013-02-17 20:29:00,30.6,24.0,30.15,SSW,203,0.0,2.0,76,0.00,,---,0.00,0.00,VWS V14.01,2013-02-18 04:29:00,
2013-02-17 20:34:00,30.6,24.0,30.15,SSW,203,0.0,1.0,76,0.00,,---,0.00,0.00,VWS V14.01,2013-02-18 04:34:00,
2013-02-17 20:39:00,30.5,23.9,30.15,SSW,204,0.0,1.0,76,0.00,,---,0.00,0.00,VWS V14.01,2013-02-18 04:39:00,
2013-02-17 20:44:00,30.3,24.0,30.15,SSW,204,1.0,1.0,77,0.00,,---,0.00,0.00,VWS V14.01,2013-02-18 04:44:00,
2013-02-17 20:49:00,30.4,24.1,30.15,SSW,209,0.0,1.0,77,0.00,,---,0.00,0.00,VWS V14.01,2013-02-18 04:49:00,
2013-02-17 20:54:00,30.4,24.1,30.15,SSW,209,0.0,1.0,77,0.00,,---,0.00,0.00,VWS V14.01,2013-02-18 04:54:00,
2013-02-17 20:59:00,30.4,24.1,30.15,SSW,209,0.0,1.0,77,0.00,,---,0.00,0.00,VWS V14.01,2013-02-18 04:59:00,
2013-02-17 21:00:00,30.4,24.1,30.15,SSW,209,0.0,1.0,77,0.00,,---,0.00,0.00,VWS V14.01,2013-02-18 05:00:00,
2013-02-17 21:05:00,30.4,24.1,30.15,SSW,209,0.0,0.0,77,0.00,,---,0.00,0.00,VWS V14.01,2013-02-18 05:05:00,
2013-02-17 21:10:00,30.4,24.1,30.15,SSW,209,0.0,0.0,77,0.00,,---,0.00,0.00,VWS V14.01,2013-02-18 05:10:00,
2013-02-17 21:15:00,30.3,24.0,30.15,SSW,209,0.0,0.0,77,0.00,,---,0.00,0.00,VWS V14.01,2013-02-18 05:15:00,
2013-02-17 21:20:00,30.2,23.9,30.14,SSW,209,0.0,0.0,77,0.00,,---,0.00,0.00,VWS V14.01,2013-02-18 05:20:00,
2013-02-17 21:25:00,30.0,23.7,30.14,SSW,209,0.0,0.0,77,0.00,,---,0.00,0.00,VWS V14.01,2013-02-18 05:25:00,
2013-02-17 21:30:00,29.8,23.8,30.14,SSW,209,0.0,0.0,78,0.00,,---,0.00,0.00,VWS V14.01,2013-02-18 05:30:00,
2013-02-17 21:35:00,29.6,23.6,30.14,SSW,209,0.0,0.0,78,0.00,,---,0.00,0.00,VWS V14.01,2013-02-18 05:35:00,
2013-02-17 21:40:00,29.4,23.7,30.13,SSW,210,2.0,2.0,79,0.00,,---,0.00,0.00,VWS V14.01,2013-02-18 05:40:00,
2013-02-17 21:45:00,29.2,23.5,30.13,SSW,210,0.0,2.0,79,0.00,,---,0.00,0.00,VWS V14.01,2013-02-18 05:45:00,
2013-02-17 21:50:00,29.1,23.7,30.13,SSW,210,0.0,2.0,80,0.00,,---,0.00,0.00,VWS V14.01,2013-02-18 05:50:00,
2013-02-17 21:55:00,29.0,23.6,30.13,SW,229,0.0,2.0,80,0.00,,---,0.00,0.00,VWS V14.01,2013-02-18 05:55:00,
2013-02-17 22:00:00,28.9,23.5,30.13,SW,229,1.0,2.0,80,0.00,,---,0.00,0.00,VWS V14.01,2013-02-18 06:00:00,
2013-02-17 22:05:00,28.9,23.5,30.13,SW,229,0.0,1.0,80,0.00,,---,0.00,0.00,VWS V14.01,2013-02-18 06:05:00,
2013-02-17 22:10:00,28.9,23.5,30.12,SW,229,0.0,1.0,80,0.00,,---,0.00,0.00,VWS V14.01,2013-02-18 06:10:00,
2013-02-17 22:15:00,28.8,23.4,30.13,SW,229,0.0,1.0,80,0.00,,---,0.00,0.00,VWS V14.01,2013-02-18 06:15:00,
2013-02-17 22:20:00,28.7,23.6,30.12,SW,229,0.0,1.0,81,0.00,,---,0.00,0.00,VWS V14.01,2013-02-18 06:20:00,
2013-02-17 22:25:00,28.5,23.1,30.12,SW,229,0.0,1.0,80,0.00,,---,0.00,0.00,VWS V14.01,2013-02-18 06:25:00,
2013-02-17 22:30:00,28.4,23.3,30.12,SW,229,0.0,1.0,81,0.00,,---,0.00,0.00,VWS V14.01,2013-02-18 06:30:00,
2013-02-17 22:35:00,28.3,23.2,30.12,SW,229,0.0,0.0,81,0.00,,---,0.00,0.00,VWS V14.01,2013-02-18 06:35:00,
2013-02-17 22:40:00,28.1,23.0,30.12,SW,229,0.0,0.0,81,0.00,,---,0.00,0.00,VWS V14.01,2013-02-18 06:40:00,
2013-02-17 22:45:00,28.0,22.9,30.12,SW,229,0.0,0.0,81,0.00,,---,0.00,0.00,VWS V14.01,2013-02-18 06:45:00,
2013-02-17 22:50:00,27.9,23.1,30.12,SW,229,0.0,0.0,82,0.00,,---,0.00,0.00,VWS V14.01,2013-02-18 06:50:00,
2013-02-17 22:55:00,27.8,23.0,30.12,SW,229,0.0,0.0,82,0.00,,---,0.00,0.00,VWS V14.01,2013-02-18 06:55:00,
2013-02-17 23:00:00,27.6,22.8,30.11,SW,229,0.0,0.0,82,0.00,,---,0.00,0.00,VWS V14.01,2013-02-18 07:00:00,
2013-02-17 23:05:00,27.5,23.0,30.12,SW,229,0.0,0.0,83,0.00,,---,0.00,0.00,VWS V14.01,2013-02-18 07:05:00,
2013-02-17 23:10:00,27.4,22.9,30.11,SW,229,1.0,2.0,83,0.00,,---,0.00,0.00,VWS V14.01,2013-02-18 07:10:00,
2013-02-17 23:15:00,27.3,22.8,30.11,SW,229,2.0,2.0,83,0.00,,---,0.00,0.00,VWS V14.01,2013-02-18 07:15:00,
2013-02-17 23:20:00,27.4,22.9,30.11,SW,232,1.0,2.0,83,0.00,,---,0.00,0.00,VWS V14.01,2013-02-18 07:20:00,
2013-02-17 23:25:00,27.4,23.2,30.11,SW,232,1.0,2.0,84,0.00,,---,0.00,0.00,VWS V14.01,2013-02-18 07:25:00,
2013-02-17 23:30:00,27.3,23.1,30.11,SW,232,0.0,2.0,84,0.00,,---,0.00,0.00,VWS V14.01,2013-02-18 07:30:00,
2013-02-17 23:35:00,27.3,23.1,30.11,SW,232,0.0,0.0,84,0.00,,---,0.00,0.00,VWS V14.01,2013-02-18 07:35:00,
2013-02-17 23:40:00,27.3,23.1,30.11,SW,232,2.0,2.0,84,0.00,,---,0.00,0.00,VWS V14.01,2013-02-18 07:40:00,
2013-02-17 23:45:00,27.2,23.0,30.11,SW,232,1.0,2.0,84,0.00,,---,0.00,0.00,VWS V14.01,2013-02-18 07:45:00,
2013-02-17 23:50:00,27.2,23.0,30.11,SW,232,0.0,2.0,84,0.00,,---,0.00,0.00,VWS V14.01,2013-02-18 07:50:00,
2013-02-17 23:55:00,27.2,23.0,30.11,SW,232,0.0,2.0,84,0.00,,---,0.00,0.00,VWS V14.01,2013-02-18 07:55:00,